Regional Weather Roundup
Issued by NWS

Home | Current Version | Previous Version | Graphics & Text | Print | Product List | Glossary Off
Versions: 1 2 3 4 5 6 7 8 9 10 11 12 13 14 15 16 17 18 19 20 21 22 23 24 25 26 27 28 29 30 31 32 33 34 35 36 37 38 39 40 41 42 43 44 45 46 47 48 49 50

000
ASUS43 KDTX 281910
RWRMI
MICHIGAN HOURLY REGIONAL WEATHER ROUNDUP
NATIONAL WEATHER SERVICE DETROIT/PONTIAC MI
300 PM EDT TUE JUL 28 2015

NOTE: "FAIR" INDICATES FEW OR NO CLOUDS BELOW 12,000 FEET WITH NO
SIGNIFICANT WEATHER AND/OR OBSTRUCTION TO VISIBILITY.

MIZ047>049-052>055-059>063-066>070-074>076-081>083-282000-
SOUTHEAST LOWER MICHIGAN

CITY           SKY/WX    TMP DP  RH WIND       PRES   REMARKS
ADRIAN         SUNNY     88  62  41 CALM      30.03F
ALMA           MOSUNNY   87  60  40 SE6       30.01F
ANN ARBOR      SUNNY     88  60  38 SE9       30.02F
BAD AXE        MOSUNNY   89  59  37 CALM      30.02F
CARO           MOSUNNY   90  61  38 S5        30.01F HX  90
DETROIT CITY   SUNNY     88  58  36 VRB7      30.02F
DETROIT        MOSUNNY   90  63  40 S8        30.02F HX  91
FLINT          SUNNY     91  61  36 S5        30.02F HX  91
GROSSE ILE     SUNNY     84  66  54 S8        30.01S
HILLSDALE      SUNNY     87  62  44 E5        30.04S
HOWELL         SUNNY     89  56  32 SE7       30.03S

CITY           SKY/WX    TMP DP  RH WIND       PRES   REMARKS
JACKSON        SUNNY     89  60  37 SE9       30.03F
LAMBERTVILLE   SUNNY     87  62  42 E3        30.03S
LANSING        SUNNY     88  62  41 S8        30.02F
LAPEER         FAIR      89  58  35 SE5       30.02F
MASON          SUNNY     85  62  46 CALM      30.03F
MONROE         SUNNY     86  63  46 CALM      30.01S
MT. CLEMENS    MOSUNNY   88  64  45 SE7       30.01F
PONTIAC        PTSUNNY   90  59  35 VRB5      30.02F
PORT HOPE        N/A     79  71  76 E5        30.02F
PORT HURON     SUNNY     88  61  40 E5        30.02S
TRI CITIES     SUNNY     88  63  43 SE3       30.01F
MIDLAND        FAIR      89  59  36 S8        30.00F
TROY           MOSUNNY   91  57  31 E5        30.03F
SAGINAW HB     SUNNY     90  59  35 S3        30.01F
$$
MIZ043>046-050>051-056>058-064>065-071>073-077>080-282000-
SOUTHWEST LOWER MICHIGAN

CITY           SKY/WX    TMP DP  RH WIND       PRES   REMARKS
BATTLE CREEK   MOSUNNY   87  63  44 SW7       30.03F
BENTON HARBOR  MOSUNNY   87  66  49 S6        29.98F
BIG RAPIDS     PTSUNNY   85  54  34 S6        30.01F
COLDWATER      SUNNY     85  63  47 S5        30.02S
FREMONT        FAIR      88  52  29 S9        29.99F
HOLLAND        MOSUNNY   89  60  37 SE8       30.00F
GRAND RAPIDS   PTSUNNY   88  59  37 SE7       30.01F
IONIA          FAIR      88  61  41 SE6       30.01F
KALAMAZOO      MOSUNNY   88  65  46 S6        30.01F HX  90
LUDINGTON      PTSUNNY   81  61  50 SW9       29.99F
MARSHALL       MOSUNNY   87  64  46 CALM      30.02F
MOUNT PLEASANT PTSUNNY   89  58  34 S7        30.01F
MUSKEGON       PTSUNNY   88  58  36 S10       29.99F
SOUTH HAVEN    MOSUNNY   87  62  42 S3        29.99F
$$
MIZ016>042-282000-
NORTHERN LOWER MICHIGAN

CITY           SKY/WX    TMP DP  RH WIND       PRES   REMARKS
ALPENA         PTSUNNY   90  61  37 E12       30.00F HX  90
BEAVER ISLAND  CLOUDY    79  61  53 SW8       30.01S
BELLAIRE       CLOUDY    90  59  34 NW7       29.97F
CADILLAC       PTSUNNY   87  61  41 S8        30.02F
CHARLEVOIX     CLOUDY    82  63  51 W13       30.02F
FRANKFORT      PTSUNNY   82  63  53 SW5       29.99F
GAYLORD        CLOUDY    91  57  31 SW9       30.02F
GRAYLING       CLOUDY    91  58  33 S8        30.02F
HARBOR SPRINGS CLOUDY    81  68  64 SW5       29.98S
HOUGHTON LAKE  CLOUDY    89  61  38 SW9       30.03F
MANISTEE       PTSUNNY   82  63  51 W9        29.99F
OSCODA         MOSUNNY   91  60  35 SE13      30.00F HX  90
PELLSTON       CLOUDY    93  52  24 CALM      29.98F HX  90
ROGERS CITY    PTSUNNY   86  67  52 E6        30.00F
TRAVERSE CITY  CLOUDY    92  62  36 VRB6      29.96F HX  92
$$
MIZ007>008-015-282000-
EASTERN UPPER MICHIGAN

CITY           SKY/WX    TMP DP  RH WIND       PRES   REMARKS
KINROSS        CLOUDY    90  55  31 SW6       29.99F
MACKINAC ISLAN CLOUDY    87  59  38 W5        29.99F
MUNISING         N/A     85  62  46 S8G18     29.94F
$$
MIZ004>006-011>014-085-282000-
CENTRAL UPPER MICHIGAN

CITY           SKY/WX    TMP DP  RH WIND       PRES   REMARKS
MANISTIQUE     CLOUDY    77  63  61 SE7       29.98F
ESCANABA       CLOUDY    79  66  65 SE9       29.94F
MENOMINEE      CLOUDY    82  64  54 S10G16    29.92F
SAWYER-GWINN   SUNNY     82  59  44 S14G20    29.96F
$$
MIZ001>003-009>011-084-282000-
WESTERN UPPER MICHIGAN

CITY           SKY/WX    TMP DP  RH WIND       PRES   REMARKS
IRON MOUNTAIN  CLOUDY    82  63  52 S10G18    29.93F
HOUGHTON       CLOUDY    82  63  52 SE14      29.89F
COPPER HARBOR    N/A     82  62  50 SW8G16    29.89F
IRONWOOD       CLOUDY    79  68  69 S18G29    29.81S
$$

ABBREVIATIONS USED IN REMARKS
   TC - TEMPERATURE IN CELSIUS
  WCI - WIND CHILL INDEX
   HX - HEAT INDEX
  VSB - VISIBILITY




USA.gov is the U.S. government's official web portal to all federal, state and local government web resources and services.